User: anonymous   Login
Location: Bouchavesnes-Bergen
(49.9859°N, 2.9203°E)
Time: 19:56:01
(UTC+00:00)
Language:

Cosmos 1140 Rocket - Orbit

View from above orbital plane
View from above orbital plane
View from above satellite
View from above satellite

Ground track
Ground track

The orbit data is extracted from the following two-line orbital elements,

1 11574U 79089B   21136.37582866 -.00000016  00000-0  33139-5 0  9991
2 11574  74.0691 100.6976 0015845 356.8449   3.2604 14.40804364182772
Epoch (UTC): 16 May 2021 09:01:11
Eccentricity: 0.0015845
inclination: 74.0691°
perigee height: 744 km
apogee height: 767 km
right ascension of ascending node: 100.6976°
argument of perigee: 356.8449°
revolutions per day: 14.40804364
mean anomaly at epoch: 3.2604°
orbit number at epoch: 18277

The dashed part of the orbit path shows where the satellite is in the earth's shadow,  

DLR